Regional Weather Roundup
Issued by NWS

Home | Current Version | Previous Version | Graphics & Text | Print | Product List | Glossary On
Versions: 1 2 3 4 5 6 7 8 9 10 11 12 13 14 15 16 17 18 19 20 21 22 23 24 25 26 27 28 29 30 31 32 33 34 35 36 37 38 39 40 41 42 43 44 45 46 47 48 49 50
000
ASUS43 KMPX 191601
RWRMN
WEATHER ROUNDUP FOR MINNESOTA
NATIONAL WEATHER SERVICE TWIN CITIES/CHANHASSEN MN
1000 AM CST MON FEB 19 2018


NOTE: "FAIR" INDICATES FEW OR NO CLOUDS BELOW 12,000 FEET WITH NO
SIGNIFICANT WEATHER AND/OR OBSTRUCTIONS TO VISIBILITY. N/A MEANS
CURRENT SKY AND/OR WEATHER CONDITIONS ARE NOT AVAILABLE.

MNZ060>063-068>070-191700-
   Twin Cities Metro

CITY           SKY/WX    TMP DP  RH WIND       PRES   REMARKS
TWIN CITIES    FRZ DRZL  20  18  92 N16       29.90F WCI   6
ST PAUL        FRZ RAIN  22  18  85 N12       29.92F FOG     WCI  10
CRYSTAL        LGT SNOW  19  14  81 N13G23    29.91F WCI   6
BLAINE         LGT SNOW  19  18  93 N16G22    29.92F FOG     WCI   5
LAKEVILLE      CLOUDY    19  19 100 NE13G18   29.87F FOG     WCI   7
EDEN PRAIRIE   FRZ RAIN  20  15  81 NE13G21   29.89S WCI   7
SOUTH ST PAUL  CLOUDY    24  20  86 NE10G18   29.89F FOG     WCI  13
LAKE ELMO      MIX PCPN  23  21  93 NE13G22   29.92S WCI  11
$$
MNZ001>005-007-008-013>017-022>024-027-028-191700-
   Northwest Minnesota

CITY           SKY/WX    TMP DP  RH WIND       PRES   REMARKS
BEMIDJI        FAIR       6  -2  70 NE10      30.14S WCI  -9
HALLOCK        FAIR      -6 -11  77 N6        30.31R WCI -18
WARROAD        FAIR      -2  -9  71 NW5       30.25R WCI -12
THIEF RVR FALL FAIR       4  -6  63 N14       30.24R WCI -14
CROOKSTON      FAIR       3  -4  72 N13       30.27R WCI -14
FOSSTON        FAIR       3  -4  72 N12       30.18R WCI -13
DETROIT LAKES  FAIR      10   1  67 NE9       30.11S WCI  -2
MOORHEAD       FAIR       7   0  72 N18G25    30.18S WCI -12
PARK RAPIDS    FAIR       8   0  69 N12G18    30.08R WCI  -7
MAHNOMEN       FAIR       5  -1  76 N14       30.14S WCI -12
$$
MNZ006-009>011-018-025>026-191700-
   North Central Minnesota

CITY           SKY/WX    TMP DP  RH WIND       PRES   REMARKS
BAUDETTE       FAIR      -1  -7  75 NW6       30.22R WCI -13
FLAG ISLAND    FAIR      -8 -13  77 NW7       30.25S WCI -22
INTL FALLS     FAIR       3  -3  76 NE7       30.21R WCI  -9
WASKISH        FAIR       3   0  85 N5        30.19R WCI  -6
BIG FORK       FAIR       7   0  72 NE6       30.15R WCI  -3
LONGVILLE      PTSUNNY    7   0  72 N8        30.11R WCI  -6
GRAND RAPIDS   CLOUDY     6  -1  73 N10       30.14R WCI  -9
CRANE LAKE     FAIR       5  -2  72 N5        30.21R WCI  -4
ORR            FAIR       5  -4  66 NE3       30.14R
COOK             N/A      5  -2  72 N6        30.15R WCI  -6
WALKER         FAIR       6  -2  67 NE8       30.12S WCI  -6
$$
MNZ012-019>021-037-191700-
   Northeast Minnesota

CITY           SKY/WX    TMP DP  RH WIND       PRES   REMARKS
DULUTH         LGT SNOW   9   3  77 N12       30.05R WCI  -6
ELY            FAIR       3  -2  78 NE8       30.13R WCI -10
HIBBING        CLOUDY     5  -3  69 N9        30.11R WCI  -9
EVELETH        FAIR     N/A N/A N/A NE13      30.12R
DULUTH HARBOR  SNOW      18  12  79 NE22G28   30.11F VSB 1/2 WCI   0
TWO HARBORS    LGT SNOW  14   5  67 N8        30.08R WCI   3
G MARAIS ARPRT FAIR       3  -6  66 N12       30.04F WCI -13
$$
MNZ029>031-032-039>041-046>048-054>057-064-191700-
   West Central Minnesota

CITY           SKY/WX    TMP DP  RH WIND       PRES   REMARKS
FERGUS FALLS   FAIR      10   1  67 NE12G18   30.09S WCI  -4
WHEATON        PTSUNNY   10   3  72 N15       30.10S WCI  -6
MORRIS         LGT SNOW  12   9  85 N17       30.02R WCI  -5
ALEXANDRIA     LGT SNOW  11   5  77 NE15G24   29.99F WCI  -5
ELBOW LAKE     LGT SNOW  10   5  79 NE15      30.05S WCI  -6
WADENA         FLURRIES   9   1  72 N13G21    30.06S WCI  -7
GLENWOOD       LGT SNOW  12   9  85 NE18G26   29.98S WCI  -5
APPLETON       CLOUDY    16  10  79 N20       30.01S WCI  -1
BENSON         LGT SNOW  14   9  79 NE13G21   30.01R WCI   0
MADISON        FLURRIES  16  12  86 N17G23    30.01F WCI   0
WILLMAR        CLOUDY    16  10  79 NE17      29.98S WCI   0
$$
MNZ033>034-036-042>043-049>051-058-059-191700-
   Central Minnesota

CITY           SKY/WX    TMP DP  RH WIND       PRES   REMARKS
ST CLOUD       CLOUDY    13   9  84 N10       29.97S WCI   0
SAUK CENTRE    LGT SNOW  12   8  83 NE12G22   29.99R WCI  -2
PAYNESVILLE    CLOUDY    14  10  87 NE18G24   29.98R WCI  -3
AITKIN         LGT SNOW   7   1  78 N14       30.06S WCI -10
PINE RIVER     FLURRIES   7   0  72 N15       30.12R WCI -11
BRAINERD       LGT SNOW  10   3  73 N14       30.05F VSB 3/4 WCI  -6
STAPLES        LGT SNOW   9   1  72 N10G16    30.05S WCI  -6
LONG PRAIRIE   LGT SNOW  10   5  79 N17       30.00S WCI  -7
LITTLE FALLS     N/A    N/A N/A N/A N8          N/A
LITCHFIELD     CLOUDY    16  12  86 N17       29.95R WCI   0
BUFFALO        LGT SNOW  17  12  82 N17       29.95S WCI   1
MAPLE LAKE     LGT SNOW  17  14  86 N15G23    29.95F WCI   3
HUTCHINSON     LGT SNOW  17  13  86 N18G24    29.92S WCI   1
$$
MNZ037-044-045-052-053-191700-
   East Central Minnesota

CITY           SKY/WX    TMP DP  RH WIND       PRES   REMARKS
PRINCETON      FLURRIES  16  10  79 N14G22    29.97F WCI   1
MORA           LGT SNOW  14   9  79 N8        30.02R WCI   3
CAMBRIDGE      LGT SNOW  18   9  68 N13G20    29.97F WCI   4
RUSH CITY      LGT SNOW  16  11  83 NE14G20   29.99S WCI   1
MOOSE LAKE     SNOW      12   9  85 N10G16    30.02F VSB 1/2 WCI  -1
HINCKLEY       LGT SNOW  16  12  86 N15G21    30.00F WCI   1
CLOQUET        LGT SNOW   9   3  78 N9        30.05F WCI  -5
MCGREGOR       CLOUDY    10   5  79 N10       30.06F WCI  -3
$$
MNZ071>073-080-081-089-090-097-098-191700-
   Southwest Minnesota

CITY           SKY/WX    TMP DP  RH WIND       PRES   REMARKS
MONTEVIDEO     CLOUDY    16  10  79 NE17      29.97F WCI   0
GRANITE FALLS  LGT SNOW  17  13  86 N15       29.98F WCI   2
CANBY          LGT SNOW  14  10  85 N16       29.98F WCI  -2
MARSHALL       FLURRIES  15  11  83 N18       29.94F WCI  -2
REDWOOD FALLS  LGT SNOW  15  11  83 N13G22    29.94R FOG     WCI   1
OLIVIA         CLOUDY    18  12  79 N20       29.94S WCI   1
PIPESTONE      FLURRIES  12   9  85 NE23      29.84F WCI  -7
WINDOM         LGT SNOW  16   3  57 N18G24    29.85S WCI  -1
WORTHINGTON    LGT SNOW  15  12  88 MISG      29.83S FOG
JACKSON        CLOUDY    18  14  86 VRB18     29.82S FOG     WCI   2
TRACY          LGT SNOW  15  13  91 N16G29    29.91S WCI   0
SLAYTON        LGT SNOW  14  11  90 N22G31    29.86F WCI  -5
$$
MNZ065>067-074>077-082>085-091>093-191700-
   South Central Minnesota

CITY           SKY/WX    TMP DP  RH WIND       PRES   REMARKS
MANKATO        LGT SNOW  20  17  88 NE17      29.86R VSB 3/4 WCI   5
NEW ULM        CLOUDY    18  12  79 N13       29.89S FOG     WCI   4
ST JAMES       LGT SNOW  18  16  93 N16       29.87F WCI   3
FAIRMONT       MIX PCPN  20  18  92 MISG      29.82S FOG
GLENCOE        LGT SNOW  19  17  89 N12G20    29.90S WCI   7
FARIBAULT      LGT SNOW  21  19  93 N14G20    29.84F WCI   8
OWATONNA       MIX PCPN  25  21  86 N13G20    29.81F WCI  13
WASECA         LGT SNOW  23  19  86 N20       29.83F WCI   8
ALBERT LEA     MIX PCPN  27  25  93 N13G20    29.78R WCI  16
$$
MNZ078>079-086>088-094>096-191700-
   Southeast Minnesota

CITY           SKY/WX    TMP DP  RH WIND       PRES   REMARKS
ROCHESTER      FRZ RAIN  29  28  96 N17       29.78S FOG     WCI  17
RED WING       MIX PCPN  27  21  80 NE10G18   29.86F WCI  17
STANTON        LGT SNOW  25  22  87 NE16G23   29.85S WCI  12
DODGE CENTER   MIX PCPN  27  25  93 N17       29.78F WCI  14
WINONA         CLOUDY    34  32  93 NE6       29.81F WCI  29
AUSTIN         MIX PCPN  28  27  93 NE14      29.76S WCI  17
PRESTON        CLOUDY    31  29  94 NE10      29.77S FOG     WCI  22
$$
ABBREVIATIONS USED IN REMARKS
   TC - TEMPERATURES IN CELSIUS
  WCI - WIND CHILL INDEX
   HX - HEAT INDEX
  VSB - VISIBILITY
$$



USA.gov is the U.S. government's official web portal to all federal, state and local government web resources and services.